Presure
207 143 168 178 187 174 173 167 174 166 159 173 172 165 158 167 150 159 128 134 156 157 156 160 164 159 157 157 158 152 154 164 165 151 162 127 170 168 173 172 163 163 171
158 150 181 175 181 145 180 175 177 180 165 167 167 163 163 162 165 163 150 147 154 164 172 167 167 167 167 171 165 169 151 145 149 173 147 167 168 135 163 170 171 181 180
189 149 164 216 180 179 177 186 168 178 175 186 174 174 172 164 162 165 168 178 165 150 176 141 171 172 179 140 121 172 171 164 167 169 151 168 171 181 178 178 183 185 173
183 190 153 149 160 187 183 151 188 177 180 181 162 179 164 167 141 171 176 174 170 164 125 164 162 152 171 170 155 176 169 165 162 174 168 168 182 179 179 143 163 185 185
164 158 230 218 154 147 144 145 149 153 194 203 176 182 172 168 164 166 166 161 171 165 172 165 127 125 172 175 153 140 136 193 167 178 143 166 146 166 150 151 159 162 160
193 182 205 222 214 171 157 184 181 148 150 173 189 201 181 181 176 177 177 162 165 168 150 173 182 183 183 185 176 180 166 179 152 153 151 189 179 152 149 141 167 160 166
192 189 172 160 175 212 172 172 181 146 150 151 157 153 150 198 178 178 173 175 176 180 123 180 168 162 182 171 179 189 179 195 155 170 166 173 172 129 164 157 166 138 193
200 190 185 188 184 172 223 244 184 227 217 172 172 175 222 213 153 194 188 186 180 176 175 182 157 187 120 139 190 176 182 133 132 182 171 175 166 177 167 157 146 158 148
214 204 199 186 182 191 199 184 180 173 174 198 184 181 205 170 211 193 192 161 188 195 194 185 184 198 200 201 124 188 135 192 189 191 194 189 194 180 158 150 169 171 139
227 218 211 206 195 187 186 195 226 213 213 216 191 189 179 181 228 187 205 199 220 223 223 165 186 181 208 206 187 184 153 151 200 192 134 176 194 144 143 139 168 140 179
232 231 220 215 215 218 211 210 219 223 233 194 197 205 201 187 180 176 183 190 188 188 194 187 196 196 195 200 201 199 193 184 163 142 204 204 201 200 198 188 182 204 188
236 235 233 226 224 215 214 221 231 208 218 219 221 191 205 182 183 184 184 187 186 191 192 183 187 194 217 208 193 195 206 200 196 184 197 198 211 136 141 211 184 191 176
256 256 254 244 237 236 230 223 219 229 229 222 224 223 220 220 197 192 192 192 191 194 197 201 201 200 204 205 208 207 243 215 217 135 221 219 152 212 205 191 203 197 199
263 270 273 273 266 251 242 239 235 228 228 239 234 232 233 217 222 221 225 221 218 216 215 213 216 215 215 216 234 236 229 238 238 235 235 228 228 229 226 243 254 220 207
279 269 312 281 289 278 277 273 269 266 250 238 233 227 224 225 227 229 230 231 229 234 232 230 232 253 265 259 241 252 238 272 260 249 237 218 244 236 244 250 267 260 267
270 282 289 299 317 298 321 272 278 271 274 269 270 259 247 241 243 242 242 216 107 252 253 254 251 254 246 251 249 245 232 248 257 269 258 262 229 252 278 269 242 260 283
289 288 269 270 288 307 304 288 308 325 300 320 326 284 266 275 252 249 262 258 258 259 249 255 251 248 244 252 278 287 274 267 182 232 260 251 251 270 270 287 284 286 267
286 292 291 287 279 277 277 289 300 299 295 311 303 301 327 322 286 292 259 250 275 254 251 279 277 256 268 264 247 248 263 269 267 267 272 268 273 267 250 278 291 270 262
284 285 284 288 293 299 302 291 288 284 285 285 288 292 299 307 319 324 330 336 339 350 356 345 309 293 288 310 338 334 327 283 316 300 273 310 309 298 293 282 255 250 252
286 294 300 304 310 319 313 292 317 316 315 317 305 305 314 284 292 294 295 295 297 296 320 315 319 311 293 314 311 326 323 322 325 325 318 304 299 281 281 265 250 236 238
272 277 282 287 289 287 285 286 285 284 288 296 296 299 303 307 307 308 322 329 333 327 352 347 330 346 313 295 279 294 312 277 291 299 300 286 278 272 259 245 239 246 241
271 269 273 273 272 270 273 271 279 279 276 275 284 281 280 285 291 300 296 304 304 318 324 334 322 332 326 301 291 296 277 275 260 252 258 257 265 254 239 234 254 241 227
277 281 271 271 264 264 264 267 267 266 263 270 266 272 268 271 272 291 289 284 303 311 304 314 300 312 302 278 289 269 266 270 251 244 239 254 237 242 257 226 226 240 248
262 280 285 285 280 275 283 280 280 285 292 293 265 263 261 261 264 267 285 285 283 292 286 283 278 283 297 302 280 260 253 254 262 255 258 254 229 233 237 246 241 230 227
264 261 281 274 279 266 258 259 276 273 275 276 291 270 260 256 255 262 287 273 277 282 273 274 273 270 273 274 277 281 281 263 258 241 242 252 247 251 247 249 241 243 233
267 264 259 263 276 263 260 258 257 261 269 273 283 276 261 254 252 250 249 274 263 258 259 278 269 262 261 258 256 249 263 258 248 247 242 240 243 235 249 243 243 236 230
Wind_Speed
102 74 91 98 100 98 97 94 99 91 85 91 91 90 86 91 82 91 58 62 83 84 80 81 83 81 80 82 84 80 83 86 89 76 89 65 95 94 97 95 82 81 96
82 75 99 93 98 75 102 97 99 101 88 91 91 90 92 92 95 96 80 75 79 87 92 87 86 86 87 89 85 86 80 77 80 93 75 93 97 71 88 97 99 104 104
89 78 85 103 97 98 98 104 88 96 95 105 96 96 96 93 93 98 100 101 88 79 90 69 86 86 91 74 66 86 88 90 92 93 81 91 96 97 99 100 103 102 89
86 90 85 79 84 99 100 80 103 96 98 98 88 99 91 94 75 97 99 95 94 89 68 86 82 74 85 84 79 88 87 88 88 92 92 90 94 94 94 76 88 101 100
85 80 101 103 82 80 78 77 79 81 105 107 95 100 99 97 92 91 93 90 100 90 97 90 74 74 89 91 80 76 76 102 88 92 75 88 76 89 81 85 88 90 84
88 86 90 102 99 90 85 94 95 81 83 91 97 107 103 104 101 99 98 93 96 102 77 102 106 105 102 104 93 94 89 96 83 83 82 100 94 84 80 71 94 90 92
88 86 86 92 91 98 91 91 94 81 83 85 86 81 78 108 98 100 98 100 101 103 64 109 93 88 106 92 99 106 97 108 86 91 89 92 90 62 88 89 90 65 108
90 89 87 89 95 92 102 107 93 109 107 93 91 94 113 111 85 102 99 98 96 96 100 106 91 115 71 78 112 98 100 77 75 100 93 97 89 94 93 82 72 95 70
94 91 91 90 94 94 94 92 92 92 93 102 96 94 104 94 112 101 100 93 97 106 109 106 106 114 115 115 76 110 84 109 108 107 109 108 110 101 91 80 91 100 71
94 95 95 96 92 97 96 96 103 100 101 104 100 98 93 92 116 95 104 107 114 115 113 91 102 101 111 111 106 104 90 84 112 109 73 101 113 80 70 66 98 69 103
92 94 95 96 94 98 101 101 103 103 106 98 94 103 103 99 94 94 95 98 97 98 102 100 103 103 105 107 109 110 110 104 90 82 114 115 114 115 112 107 103 114 108
91 93 94 97 98 98 100 101 105 101 102 102 102 100 104 99 100 99 98 97 97 96 100 97 99 102 110 108 105 108 110 111 111 103 110 111 116 69 75 116 103 109 94
87 89 92 95 97 99 100 101 101 103 105 104 104 106 107 107 103 104 103 101 99 99 101 104 103 104 107 106 109 109 114 113 115 69 118 120 78 116 112 106 111 110 111
83 83 84 87 90 95 98 100 102 103 103 106 105 108 108 107 108 105 106 105 107 104 105 107 109 108 111 111 110 109 111 112 114 117 117 118 118 119 109 111 103 106 112
71 79 58 78 78 85 86 90 94 98 104 104 105 105 107 108 108 107 107 110 108 110 108 108 109 109 102 99 102 97 106 99 101 105 108 99 105 109 106 101 94 91 84
71 67 65 62 57 69 55 85 87 91 93 94 97 100 105 108 109 108 109 98 50 112 113 109 107 104 95 97 96 94 92 101 103 102 99 96 86 94 89 90 90 84 72
59 62 71 70 65 59 65 73 67 60 79 69 70 92 96 97 102 105 106 108 108 108 107 106 106 102 96 102 103 99 98 97 84 89 94 93 92 92 88 82 75 71 64
61 62 63 64 66 66 67 68 67 70 73 68 73 74 72 82 92 89 98 102 103 103 103 101 107 106 105 104 97 96 102 101 97 98 98 99 90 87 84 74 61 59 54
58 60 60 58 58 60 62 66 66 66 66 68 68 68 67 67 67 69 71 73 73 70 69 72 97 97 97 92 77 76 75 85 75 83 86 80 71 63 57 55 64 59 53
48 45 41 41 43 40 43 55 39 38 41 42 55 59 54 68 69 69 70 71 72 73 67 69 70 72 72 65 59 51 49 50 50 52 50 49 44 46 47 48 55 66 64
43 42 42 40 41 42 45 45 45 46 44 39 43 41 41 44 49 50 43 44 45 53 42 45 50 45 55 59 62 50 43 53 47 37 36 40 42 42 48 58 60 57 61
43 44 44 43 42 44 44 45 45 47 46 45 38 41 44 41 41 39 41 39 42 39 38 36 38 40 37 45 46 39 47 45 52 55 48 47 43 47 58 62 52 59 70
42 44 46 46 46 46 47 48 49 48 49 46 48 44 45 43 44 39 41 44 36 35 33 29 31 35 40 44 42 46 47 44 53 56 58 45 59 56 48 68 69 65 64
45 43 43 46 46 46 45 44 45 44 45 47 51 50 48 47 43 42 37 34 34 29 33 32 32 33 31 39 44 49 51 51 45 45 43 46 63 62 61 58 62 68 69
48 46 42 43 42 42 43 42 40 40 41 43 44 48 49 50 43 38 33 36 32 30 32 31 33 35 32 34 33 35 44 48 51 54 56 53 56 55 59 61 64 65 65
49 48 46 45 45 46 46 45 43 42 42 46 41 43 48 50 45 43 42 31 33 35 34 31 37 39 39 40 41 43 40 45 49 51 56 58 58 62 59 61 62 63 67
Wind_Direction
228 237 236 235 234 237 238 245 244 246 251 249 250 252 257 256 263 262 268 268 268 270 270 271 271 272 274 275 277 281 283 284 284 289 291 295 291 293 296 298 301 303 302
233 236 235 239 237 246 239 243 245 247 251 251 250 252 254 256 258 262 268 269 268 268 269 270 271 272 275 277 277 280 282 285 287 285 293 292 294 295 299 299 300 301 301
233 237 238 234 239 240 242 242 249 248 250 251 252 252 253 256 259 261 263 264 268 272 270 271 273 272 275 280 287 279 279 281 283 285 290 291 291 295 296 298 300 302 305
231 234 238 242 241 238 240 247 245 250 250 251 253 254 255 256 261 260 264 266 268 270 273 273 270 273 274 274 278 277 278 281 284 284 288 291 293 294 296 300 299 300 302
235 236 236 239 243 244 247 248 251 253 249 249 254 254 255 259 262 263 265 272 273 272 275 274 276 279 277 279 283 281 284 287 283 287 291 291 293 295 297 298 301 302 306
233 234 235 239 241 240 245 244 245 253 255 253 253 251 254 256 259 261 262 265 269 273 271 277 278 279 280 281 280 282 285 286 286 288 290 293 292 295 298 301 298 302 304
237 237 235 239 241 246 241 243 249 255 256 258 257 260 262 255 258 260 262 263 265 267 267 275 276 275 280 282 281 282 284 285 286 287 288 289 290 300 297 298 300 301 300
239 239 240 241 244 244 245 243 246 247 250 251 253 255 253 255 262 257 259 261 264 267 269 271 271 275 283 284 281 285 285 287 292 286 288 289 290 292 291 296 301 300 304
240 241 242 242 246 248 249 247 249 249 251 253 255 255 255 257 256 259 261 264 265 265 265 267 270 269 271 273 284 279 283 283 284 287 287 288 290 290 294 297 295 296 301
239 241 243 244 244 249 250 251 251 249 250 250 255 257 258 259 257 262 261 262 262 263 264 272 271 273 268 270 276 280 282 282 280 283 293 287 287 297 296 297 297 298 300
240 241 243 246 247 247 248 250 251 253 252 253 254 256 258 260 259 260 262 263 265 266 267 270 270 272 273 274 274 275 277 281 283 288 282 282 285 286 289 291 293 294 296
241 241 242 244 245 247 249 250 248 254 254 255 254 256 258 259 260 261 261 263 263 266 267 268 270 273 269 272 275 276 276 277 279 283 284 284 284 293 291 287 292 293 301
244 244 242 242 244 245 246 250 251 252 252 255 255 256 256 258 259 262 264 266 267 268 270 270 271 272 273 274 274 274 273 274 275 285 278 279 288 283 286 287 289 291 294
246 249 249 249 246 245 246 247 249 252 253 253 254 255 257 260 260 261 262 263 265 266 267 269 269 270 272 274 273 274 274 274 275 276 278 279 281 282 286 287 291 291 291
250 250 252 253 252 252 251 250 251 251 250 252 254 256 258 261 262 263 264 265 267 268 268 268 269 271 273 272 271 274 274 278 276 277 279 282 281 281 284 288 293 293 296
250 250 251 252 250 250 251 253 253 253 253 254 253 252 254 257 260 262 264 266 269 267 269 271 271 272 273 276 276 275 275 275 280 283 284 284 285 285 286 287 290 291 294
251 251 252 252 254 254 254 254 253 250 253 252 253 256 256 256 257 261 261 263 264 265 268 269 270 273 275 276 275 273 276 277 283 282 280 282 284 282 286 289 287 291 290
257 255 254 254 257 256 255 256 258 258 258 260 260 260 261 260 259 260 258 261 260 266 268 265 264 269 266 269 274 277 277 277 275 277 277 278 278 282 284 286 285 283 283
262 262 262 259 258 256 258 261 262 261 261 261 261 262 263 263 264 263 265 266 268 269 270 269 265 265 268 269 271 273 273 274 273 272 274 277 276 277 278 279 281 280 279
260 260 259 257 257 260 260 258 262 263 262 263 262 263 265 262 264 264 264 265 265 266 269 268 267 267 267 268 269 272 273 272 271 270 269 270 273 271 271 272 275 282 283
258 259 260 258 260 259 258 257 257 259 263 264 263 265 267 269 268 271 277 275 271 271 272 270 267 264 263 264 265 269 268 268 268 267 265 263 265 264 268 275 276 280 279
257 259 259 257 256 258 257 259 257 258 260 261 263 262 264 269 270 269 270 272 272 275 269 271 266 262 253 258 262 259 263 264 268 270 269 269 268 270 274 276 275 274 282
260 256 256 256 255 256 257 257 255 255 255 255 257 258 260 263 267 272 272 273 273 269 266 265 262 254 252 257 254 261 262 262 266 269 271 262 271 270 267 277 279 277 278
261 260 258 256 256 257 259 260 263 264 262 258 253 256 259 263 268 272 272 268 272 269 261 260 260 262 259 246 252 257 259 261 257 260 259 260 271 271 270 268 273 279 284
260 261 261 259 257 255 255 258 264 263 261 260 260 253 257 264 267 270 270 272 266 266 259 255 256 259 264 259 255 257 253 255 257 265 265 263 263 262 267 271 276 277 283
259 259 259 260 256 256 258 258 260 261 265 263 257 249 252 259 263 267 269 260 259 263 266 265 258 257 258 258 259 261 255 255 261 260 264 268 268 273 272 276 281 283 286